Location: Arleux
(50.3632°N, 2.8721°E)
Time: 22:13:53
(UTC+00:00)

Cosmos 1515 - Pass Details

Date: 15 December 2019
Orbit: 508 x 515 km, 82.5° (Epoch: 17 January)

Event Time Altitude Azimuth Distance (km) Brightness Sun altitude
Exits shadow 05:04:48 57° 156° (SSE) 613 4.1 -23.7°
Drops below altitude 10° 05:07:54 10° 168° (SSE) 1,739 6.6 -23.2°
Sets 05:10:01 0° 169° (S) 2,621 7.5 -22.9°
